Showing default

FLOCK 4BE 13, 60512

Orbit data source: Space-Track

FLOCK 4BE 13, 60512 is a payload satellite owned by Planet (US) in SSO that was launched on Fri, 16 Aug 2024 UTC via an FALCON 9 launch vehicle from the Air Force Western Test Range (AFWTR). Payload-class satellites include a variety of spacecraft equipped with specific instruments for various scientific and technological missions. These include communications satellites like Starlink; space stations such as the ISS; scientific satellites like the Hubble; Earth observation satellites from companies like Planet Labs, Umbra, and HawkEye 360; GPS; miniature CubeSats for education and research; and military/defense satellites.

Loading next visibility...
Identifier
60512, 2024-149AW
Orbit
SSO
Country
Flag of USUS
Related business
Manufacturer
Planet
Mission
Operational Commercial Imaging
Bus & Motor
CUBESAT 3U, Unknown motor
Mass
5.7 kg wet, 5.7 kg dry
Launch date (UTC)
2024-08-16 (1 year ago)
Launch vehicle
FALCON 9
Launch site
Air Force Western Test Range (AFWTR)
Object type
Payload
Rocket body
Debris
Shape & HBR
Box + 2 Pan, 1.0 m
Radar Cross Section
0.072 m², Medium (>0.1 m² and < 1m²)

Expand to show TLE details & history
Last TLE update: 10 hours ago

TLE from 10 hours ago
0 FLOCK 4BE 13
1 60512U 24149AW  26035.20187960  .00019968  00000-0  54560-3 0  9999
2 60512  97.3818 118.5973 0005203  37.3122 322.8483 15.37416030 81902
Epoch: 2026-02-04T04:50Z
TLE epoch observation values (Epoch: 2026-02-04T04:50:42.397Z)
Latitude
-0.00004°
Longitude
-88.4512°
Altitude
454.035 km
Speed
7.642 km/s
True Right ascension
07h 54m 23s
True Declination
0° 00' 00"
Sunlit
Object was in full shadow at epoch
Visualization orbit readout
Latitude
Unknown
Longitude
Unknown
Altitude
Unknown
Speed
Unknown
Apparent Right ascension
Unknown
Apparent Declination
Unknown
Sunlit
N/A
Visualization observer readout
Local Sidereal Time
17:12:50
Azimuth
Unknown
Elevation
Unknown
Doppler factor
Unknown
Orbital elements
Apogee altitude
454.248 km
Perigee altitude
447.142 km
Semi-major axis
6,828.832 km
Eccentricity
0.00052
Inclination
97.3818°
RAAN
118.5973°
Arg. of periapsis
37.3122°
True anomaly
322.81227°
Mean anomaly
322.8483°
Eccentric anomaly
322.83029°
Mean motion
3.84613 °/min
Orbital period
93.6 mins
BSTAR
0.0005456
Loading maneuver chart data...
Computing Atmospheric mass density...
Loading historical data...
Loading historical data...
Loading historical data...
Loading historical data...
Loading historical data...
Loading historical data...
Loading historical data...

Documentation

Showing up to 5 results
|